Miscellaneous Local Product
Issued by NWS North Platte, NE

Home | Current Version | Previous Version | Text Only | Print | Product List | Glossary On
Versions: 1 2 3 4 5 6 7 8 9 10 11 12 13 14 15 16 17 18 19 20 21 22 23 24 25 26 27 28 29 30 31 32 33 34 35 36 37 38 39 40 41 42 43 44 45 46 47 48 49 50
000
AXUS43 KLBF 212110
MISLBF


WESTERN AND NORTH CENTRAL NEBRASKA HOURLY WEATHER ROUNDUP
NATIONAL WEATHER SERVICE NORTH PLATTE NE
400 PM CDT SAT APR 21 2018

NOTE: "FAIR" INDICATES FEW OR NO CLOUDS BELOW 12,000 FEET WITH NO
SIGNIFICANT WEATHER AND/OR OBSTRUCTIONS TO VISIBILITY.

NOTE: STATIONS NOT REPORTING VARIABLES SUCH AS SKY/WEATHER OR
PRESSURE ARE PROVIDED BY RAWS AND APRS NETWORKS AND ARE NOT UNDER
NATIONAL WEATHER SERVICE QUALITY CONTROL.

...OBSERVATIONS IN AND NEAR THE EASTERN PANHANDLE OF NEBRASKA...

CITY           SKY/WX    TMP DP  RH WIND       PRES   REMARKS
PINE RIDGE     CLOUDY    43  40  89 S9        30.20F
GORDON         CLOUDY    42  38  84 S7        30.20F
CHADRON        CLOUDY    45  38  76 S8        30.19F
ALLIANCE       CLOUDY    40  37  89 S7        30.20S
SIDNEY         CLOUDY    40  33  76 E5        30.20S
CRESCENT LAKE    N/A     41  37  84 CALM        N/A
$$

...OBSERVATIONS IN NORTHERN NEBRASKA AND FAR SOUTHERN SOUTH DAKOTA...

CITY           SKY/WX    TMP DP  RH WIND       PRES   REMARKS
WINNER         CLOUDY    47  39  74 E9        30.26F
VALENTINE      CLOUDY    51  35  54 SE13      30.24F
AINSWORTH      CLOUDY    44  39  85 E6        30.25F
O`NEILL        CLOUDY    49  36  62 NE6       30.26S
THEDFORD       CLOUDY    47  38  71 E8        30.25R
BROKEN BOW     CLOUDY    46  36  68 NE7       30.22F
ORD            LGT RAIN  46  38  73 SE7       30.23F
ALBION         CLOUDY    49  33  54 E7        30.25S
VALENTINE NWR    N/A     47  38  70 SE7G15      N/A
HALSEY           N/A     45  38  77 E7          N/A
BUTTE            N/A     43  38  83 NE9         N/A
CHAMBERS         N/A     47  35  62 CALM        N/A
EWING            N/A     46  37  71 NE5         N/A
$$

...OBSERVATIONS IN SOUTHWEST NEBRASKA AND FAR NORTHEAST COLORADO...

CITY           SKY/WX    TMP DP  RH WIND       PRES   REMARKS
WRAY           CLOUDY    41  37  87 NE3       30.20S
HOLYOKE        CLOUDY    43  37  81 CALM      30.21S
IMPERIAL       CLOUDY    41  39  93 NE6       30.21R
OGALLALA       CLOUDY    43  39  86 E8        30.22S
NORTH PLATTE   CLOUDY    45  38  76 E9        30.22S
MCCOOK         CLOUDY    44  40  85 NE10      30.20F
LEXINGTON      CLOUDY    46  39  78 NE8       30.21F
STAPLETON        N/A     43  37  80 NE3         N/A
GOTHENBURG       N/A     45  37  72 E5          N/A
CALLAWAY         N/A     44  39  84 E8          N/A
$$

...OBSERVATIONS IN CENTRAL LINCOLN COUNTY AREA...

CITY           SKY/WX    TMP DP  RH WIND       PRES   REMARKS
N.P. AIRPORT   CLOUDY    45  38  76 E9        30.22S
N.P. DOWNTOWN    N/A     44  38  81 E3          N/A
N.P. SOUTHEAST   N/A     44  38  79 NE3         N/A
N.P. HILLCREST   N/A     44  38  81 E10         N/A
$$

...OBSERVATIONS ACROSS THE ROCKIES AND WESTERN HIGH PLAINS...

CITY           SKY/WX    TMP DP  RH WIND       PRES   REMARKS
RAPID CITY     SUNNY     54  37  52 S17G28    30.15F
SCOTTSBLUFF    CLOUDY    43  39  86 SE6       30.19F
CHEYENNE       CLOUDY    42  33  70 CALM      30.15F
DENVER         CLOUDY    39  32  76 CALM      30.18F
BERTHOUD PASS  CLOUDY    19   9  63 NW17G36   30.19R WCI   4
MONARCH PASS   CLOUDY    27  23  86 W22G29    30.33R WCI  12
ASPEN          CLOUDY    39  31  72 NE3       30.22R
STEAMBOAT      CLOUDY    38  33  82 CALM      30.21S
LARAMIE        MIX PCPN  33  31  92 SW6       30.15F WCI  28
CASPER         MOSUNNY   58  39  49 VRB6      30.06F
$$

...OBSERVATIONS ACROSS THE NORTHERN PLAINS...

CITY           SKY/WX    TMP DP  RH WIND       PRES   REMARKS
BISMARCK       SUNNY     63  35  35 S22G29    30.17F
FARGO          FAIR      61  39  44 S15G24    30.28F
PIERRE         CLOUDY    51  38  60 S20       30.25F
SIOUX FALLS    CLOUDY    50  36  58 E9        30.30F
$$

...OBSERVATIONS ACROSS THE CENTRAL AND SOUTHERN PLAINS...

CITY           SKY/WX    TMP DP  RH WIND       PRES   REMARKS
OMAHA          CLOUDY    54  30  40 SW5       30.25S
GRAND ISLAND   CLOUDY    44  40  85 E3        30.24S
KANSAS CITY    CLOUDY    63  32  31 E14       30.13F
WICHITA        LGT RAIN  45  44  97 NE16      30.12F FOG
DODGE CITY     CLOUDY    46  43  89 NE12      30.11S
OKLAHOMA CITY  LGT RAIN  47  46  97 NE10      30.05R
DALLAS         CLOUDY    64  61  90 W3        29.90S
AMARILLO       CLOUDY    51  45  79 N15       30.08S
$$




USA.gov is the U.S. government's official web portal to all federal, state and local government web resources and services.